THOR ABLESTAR R/B, 118

Orbit data source: Space-Track

THOR ABLESTAR R/B, 118 is space debris in LEO originally from a launch on Thu, 29 Jun 1961 UTC launched from the Air Force Eastern Test Range (AFETR). Debris objects in space refer to the collection of defunct objects orbiting the Earth. Examples of debris include non-operational satellites, rocket bodies, and fragments generated from explosions, collisions, or faulty payload assembly.

Loading next visibility...
THOR ABLESTAR R/B details
Identifier
118, 1961-015C
Orbit
LEO
Last TLE update8 hours ago
Origin
Flag of USUSAF SSD (US)
ManufacturerAerojet
MissionSpacecraft
Bus & MotorABLESTAR, Unknown motor
Mass~600 kg wet, 600 kg dry
Launch date (UTC)
1961-06-29 (64 years ago)
Launch vehicleUnknown
Launch site
Air Force Eastern Test Range (AFETR)
Object type
Payload
Rocket body
Debris
Shape & HBRCyl, 4.8 m
Radar Cross Section6.048 m², Large (>1 m²)

Expand to show TLE details & history

TLE from 8 hours ago
0 THOR ABLESTAR R/B
1 00118U 61015C   25014.89439710  .00000211  00000-0  18234-3 0  9991
2 00118  66.7635 273.1771 0088796 276.5315  82.5666 14.02458504243454
Epoch: 2025-01-14T21:27Z
Definitive object data (Epoch: 2025-01-14T21:27:55.909Z)
Latitude-0.00004°
Longitude-163.40042°
Altitude879.598 km
Speed7.417 km/s
True Right ascension18h 12m 42s
True Declination0° 00' 00"
Sunlit
Object was in daylight at TLE epoch
Visualization TLE readout
Latitude-56.05119°
Longitude156.36686°
Altitude845.294 km
Speed7.461 km/s
Apparent Right ascension17h 05m 42s
Apparent Declination-50° 18' 16"
Sunlit
Object is in daylight
Visualization observer readout
Local Sidereal Time06:22:28
Azimuth134.044° SE
Elevation-73.014°
Doppler factor1
Orbital elements
Apogee altitude948.165 km
Perigee altitude819.201 km
Semi-major axis7,261.82 km
Eccentricity0.0088796
Inclination66.7635°
RAAN273.1771°
Arg. of periapsis276.5315°
True anomaly83.57697°
Mean anomaly82.5666°
Eccentric anomaly83.07165°
Mean motion3.50732 °/min
BSTAR0.00018234
Orbital period102.64 mins
Loading maneuver chart data...

THOR ABLESTAR R/B Visibility forecast

Observer location: undefined°, undefined

Span
Click to sort rows by Start time (UTC) header in descending order
Start Az.
Max El. time (UTC)
Max El. Az.
Max El.
End time (UTC)
End Az.
10 mins2025-01-15 18:07:13.076Z182.798° SSW2025-01-15 18:12:13.076Z107.453° ESE37.327°2025-01-15 18:17:13.076Z41.473° NE
8 mins2025-01-15 19:54:13.076Z261.933° W2025-01-15 19:58:13.076Z317.317° NNW26.216°2025-01-15 20:02:13.076Z5.273° NNE
10 mins2025-01-16 03:07:13.076Z347.727° N2025-01-16 03:11:13.076Z43.314° NE35.638°2025-01-16 03:17:13.076Z126.792° SE
8 mins2025-01-16 04:53:13.076Z300.647° NW2025-01-16 04:57:13.076Z246.97° WSW26.053°2025-01-16 05:01:13.076Z199.085° SSW
|